| time (UTC) | temp F | wind direction | speed MPH | gust MPH | rain 1hr in | rain 24hr in | rain mn in | humidity % | barometer mb |
| 20260507003023 | 80 | 106 | 0.0 | 0.0 | 0.00 | 0.00 | 0.00 | 81 | 1016.4 |
| 20260507001522 | 80 | 226 | 0.0 | 0.0 | 0.00 | 0.00 | 0.00 | 80 | 1016.2 |
| 20260507000022 | 80 | 241 | 0.0 | 0.0 | 0.00 | 0.00 | 0.00 | 80 | 1016.0 |
| 20260506234521 | 81 | 106 | 0.0 | 0.0 | 0.00 | 0.00 | 0.00 | 79 | 1015.9 |
| 20260506233023 | 81 | 167 | 0.0 | 0.0 | 0.00 | 0.00 | 0.00 | 78 | 1015.6 |
| 20260506231520 | 81 | 186 | 0.0 | 0.0 | 0.00 | 0.00 | 0.00 | 78 | 1015.5 |
| 20260506230025 | 82 | 195 | 0.0 | 0.0 | 0.00 | 0.00 | 0.00 | 76 | 1015.3 |
| 20260506224519 | 83 | 143 | 0.0 | 0.0 | 0.00 | 0.00 | 0.00 | 75 | 1015.0 |
| 20260506223019 | 83 | 136 | 0.0 | 2.0 | 0.00 | 0.00 | 0.00 | 73 | 1014.8 |
| 20260506221517 | 84 | 114 | 0.0 | 0.0 | 0.00 | 0.00 | 0.00 | 71 | 1014.5 |
| 20260506220018 | 85 | 176 | 0.0 | 6.0 | 0.00 | 0.00 | 0.00 | 70 | 1014.4 |
| 20260506214517 | 86 | 143 | 0.0 | 0.0 | 0.00 | 0.00 | 0.00 | 66 | 1014.2 |
| 20260506213016 | 86 | 136 | 0.0 | 11.0 | 0.00 | 0.00 | 0.00 | 67 | 1014.1 |
| 20260506211514 | 88 | 122 | 0.0 | 0.0 | 0.00 | 0.00 | 0.00 | 65 | 1014.0 |
| 20260506210012 | 88 | 188 | 0.0 | 8.0 | 0.00 | 0.00 | 0.00 | 65 | 1014.0 |
| 20260506204510 | 87 | 125 | 0.0 | 8.0 | 0.00 | 0.00 | 0.00 | 63 | 1013.9 |
| 20260506203008 | 88 | 152 | 4.0 | 10.0 | 0.00 | 0.00 | 0.00 | 62 | 1013.8 |
| 20260506201516 | 88 | 96 | 0.0 | 5.0 | 0.00 | 0.00 | 0.00 | 63 | 1013.7 |
| 20260506200001 | 89 | 102 | 1.0 | 9.0 | 0.00 | 0.00 | 0.00 | 62 | 1013.9 |
| 20260506193056 | 89 | 96 | 0.0 | 9.0 | 0.00 | 0.00 | 0.00 | 60 | 1014.1 |
| 20260506191552 | 89 | 110 | 0.0 | 1.0 | 0.00 | 0.00 | 0.00 | 60 | 1014.3 |
| 20260506190048 | 90 | 166 | 0.0 | 16.0 | 0.00 | 0.00 | 0.00 | 59 | 1014.4 |
| 20260506184553 | 89 | 113 | 0.0 | 8.0 | 0.00 | 0.00 | 0.00 | 62 | 1014.5 |
| 20260506183040 | 90 | 145 | 0.0 | 11.0 | 0.00 | 0.00 | 0.00 | 60 | 1014.6 |
| 20260506181539 | 90 | 100 | 0.0 | 3.0 | 0.00 | 0.00 | 0.00 | 59 | 1014.8 |
| 20260506180039 | 90 | 105 | 0.0 | 8.0 | 0.00 | 0.00 | 0.00 | 59 | 1015.0 |
| 20260506174536 | 90 | 125 | 0.0 | 8.0 | 0.00 | 0.00 | 0.00 | 56 | 1015.4 |
| 20260506173031 | 90 | 136 | 1.0 | 13.0 | 0.00 | 0.00 | 0.00 | 58 | 1015.7 |
| 20260506171539 | 89 | 91 | 0.0 | 0.0 | 0.00 | 0.00 | 0.00 | 60 | 1016.0 |
| 20260506170029 | 89 | 99 | 0.0 | 8.0 | 0.00 | 0.00 | 0.00 | 60 | 1016.2 |
| 20260506164528 | 89 | 82 | 0.0 | 14.0 | 0.00 | 0.00 | 0.00 | 60 | 1016.4 |
| 20260506163027 | 89 | 100 | 0.0 | 8.0 | 0.00 | 0.00 | 0.00 | 59 | 1016.6 |
| 20260506161525 | 89 | 86 | 0.0 | 9.0 | 0.00 | 0.00 | 0.00 | 61 | 1016.8 |
| 20260506160024 | 88 | 92 | 0.0 | 0.0 | 0.00 | 0.00 | 0.00 | 63 | 1016.9 |
| 20260506154522 | 88 | 129 | 0.0 | 0.0 | 0.00 | 0.00 | 0.00 | 63 | 1017.1 |
| 20260506153020 | 87 | 134 | 0.0 | 0.0 | 0.00 | 0.00 | 0.00 | 67 | 1017.2 |
| 20260506151523 | 86 | 174 | 0.0 | 0.0 | 0.00 | 0.00 | 0.00 | 67 | 1017.3 |
| 20260506150017 | 85 | 105 | 0.0 | 0.0 | 0.00 | 0.00 | 0.00 | 69 | 1017.3 |
| 20260506144517 | 86 | 160 | 0.0 | 0.0 | 0.00 | 0.00 | 0.00 | 67 | 1017.3 |
| 20260506143019 | 86 | 91 | 0.0 | 5.0 | 0.00 | 0.00 | 0.00 | 67 | 1017.3 |
| 20260506141514 | 85 | 103 | 0.0 | 5.0 | 0.00 | 0.00 | 0.00 | 69 | 1017.4 |
| 20260506140018 | 85 | 110 | 0.0 | 3.0 | 0.00 | 0.00 | 0.00 | 71 | 1017.5 |
| 20260506134512 | 84 | 91 | 0.0 | 0.0 | 0.00 | 0.00 | 0.00 | 73 | 1017.4 |
| 20260506133014 | 83 | 134 | 0.0 | 4.0 | 0.00 | 0.00 | 0.00 | 75 | 1017.4 |
| 20260506131508 | 83 | 178 | 0.0 | 4.0 | 0.00 | 0.00 | 0.00 | 77 | 1017.3 |
| 20260506130008 | 83 | 139 | 0.0 | 0.0 | 0.00 | 0.00 | 0.00 | 79 | 1017.1 |
| 20260506124502 | 80 | 148 | 0.0 | 0.0 | 0.00 | 0.00 | 0.00 | 81 | 1017.1 |
| 20260506123001 | 79 | 266 | 0.0 | 0.0 | 0.00 | 0.00 | 0.00 | 80 | 1017.0 |
| 20260506121601 | 79 | 151 | 0.0 | 3.0 | 0.00 | 0.00 | 0.00 | 81 | 1017.1 |
| 20260506114557 | 78 | 208 | 0.0 | 0.0 | 0.00 | 0.00 | 0.00 | 80 | 1016.9 |
| 20260506113054 | 77 | 175 | 0.0 | 0.0 | 0.00 | 0.00 | 0.00 | 79 | 1016.8 |
| 20260506111552 | 76 | 149 | 0.0 | 0.0 | 0.00 | 0.00 | 0.00 | 75 | 1016.8 |
| 20260506110051 | 74 | 148 | 0.0 | 0.0 | 0.00 | 0.00 | 0.00 | 70 | 1016.7 |
| 20260506104555 | 74 | 148 | 0.0 | 0.0 | 0.00 | 0.00 | 0.00 | 72 | 1016.5 |
| 20260506103052 | 74 | 162 | 0.0 | 0.0 | 0.00 | 0.00 | 0.00 | 75 | 1016.3 |
| 20260506101546 | 74 | 162 | 0.0 | 0.0 | 0.00 | 0.00 | 0.00 | 75 | 1016.2 |
| 20260506094543 | 73 | 162 | 0.0 | 0.0 | 0.00 | 0.00 | 0.00 | 73 | 1016.0 |
| 20260506093042 | 73 | 162 | 0.0 | 0.0 | 0.00 | 0.00 | 0.00 | 72 | 1016.0 |
| 20260506091540 | 73 | 162 | 0.0 | 0.0 | 0.00 | 0.00 | 0.00 | 73 | 1016.0 |
| 20260506090039 | 73 | 221 | 0.0 | 0.0 | 0.00 | 0.00 | 0.00 | 75 | 1015.9 |
| 20260506084541 | 74 | 221 | 0.0 | 0.0 | 0.00 | 0.00 | 0.00 | 76 | 1015.7 |
| 20260506083037 | 74 | 167 | 0.0 | 0.0 | 0.00 | 0.00 | 0.00 | 76 | 1015.6 |
| 20260506081535 | 74 | 164 | 0.0 | 0.0 | 0.00 | 0.00 | 0.00 | 78 | 1015.4 |
| 20260506073029 | 75 | 164 | 0.0 | 0.0 | 0.00 | 0.00 | 0.00 | 78 | 1015.4 |
| 20260506071527 | 75 | 164 | 0.0 | 0.0 | 0.00 | 0.00 | 0.00 | 78 | 1015.5 |
| 20260506061518 | 76 | 212 | 0.0 | 0.0 | 0.00 | 0.00 | 0.00 | 79 | 1015.6 |
| 20260506044600 | 77 | 158 | 0.0 | 0.0 | 0.00 | 0.00 | 0.00 | 81 | 1016.0 |
| 20260506043058 | 77 | 177 | 0.0 | 0.0 | 0.00 | 0.00 | 0.00 | 81 | 1016.0 |
| 20260506041602 | 78 | 174 | 0.0 | 0.0 | 0.00 | 0.00 | 0.00 | 81 | 1016.1 |
| 20260506040108 | 78 | 174 | 0.0 | 0.0 | 0.00 | 0.00 | 0.00 | 81 | 1016.1 |
| 20260506034554 | 78 | 119 | 0.0 | 0.0 | 0.00 | 0.00 | 0.00 | 81 | 1016.1 |
| 20260506033055 | 78 | 105 | 0.0 | 0.0 | 0.00 | 0.00 | 0.00 | 81 | 1016.2 |
| 20260506031552 | 78 | 89 | 0.0 | 0.0 | 0.00 | 0.00 | 0.00 | 81 | 1016.3 |
| 20260506024556 | 77 | 194 | 0.0 | 0.0 | 0.00 | 0.00 | 0.00 | 81 | 1016.3 |
| 20260506023051 | 77 | 194 | 0.0 | 0.0 | 0.00 | 0.00 | 0.00 | 81 | 1016.3 |
| 20260506021556 | 77 | 194 | 0.0 | 0.0 | 0.00 | 0.00 | 0.00 | 81 | 1016.3 |
| 20260506020049 | 78 | 148 | 0.0 | 0.0 | 0.00 | 0.00 | 0.00 | 81 | 1016.2 |
| 20260506014557 | 79 | 106 | 0.0 | 0.0 | 0.00 | 0.00 | 0.00 | 81 | 1016.1 |
| 20260506013051 | 79 | 99 | 0.0 | 0.0 | 0.00 | 0.00 | 0.00 | 81 | 1016.1 |
| 20260506011547 | 79 | 115 | 0.0 | 0.0 | 0.00 | 0.00 | 0.00 | 81 | 1016.1 |
| 20260506010052 | 79 | 214 | 0.0 | 0.0 | 0.00 | 0.00 | 0.00 | 81 | 1016.0 |
| 20260506004551 | 80 | 104 | 0.0 | 0.0 | 0.00 | 0.00 | 0.00 | 81 | 1016.0 |